Location: Flint Hill Observatory
(31.1875°N, 100.5222°W)
Time: 00:08:58
(UTC-06:00)

Daily predictions for brighter satellites

Satellite Brightness Start Highest point End
(mag) Time Altitude Azimuth Time Altitude Azimuth Time Altitude Azimuth
Cosmos 2278 Rocket 3.7 04:18:25 31° ESE 04:18:25 31° ESE 04:21:44 10° SE
Hubble Space Telescope 3.1 04:45:22 22° ESE 04:45:22 22° ESE 04:47:05 10° E
Cosmos 2123 Rocket 4.4 04:42:32 10° S 04:48:36 59° E 04:54:43 10° NNE
Lacrosse 5 rocket 2.8 05:03:22 35° NE 05:03:22 35° NE 05:06:06 10° NE
Atlas Centaur 2 2.9 05:01:56 60° W 05:03:38 83° S 05:12:15 10° E
Cosmos 2061 Rocket 3.9 05:01:46 49° NNW 05:03:40 81° W 05:10:04 10° S
Cosmos 1933 Rocket 4.0 05:02:42 10° S 05:06:57 59° E 05:11:16 10° NNE
SL-8 R/B 4.0 05:08:50 59° SSE 05:09:09 61° SE 05:13:51 10° NE
OAO 1 Rocket 4.4 05:14:05 67° NNW 05:14:08 67° N 05:19:29 10° ENE
Meteor 2-10 Rocket 3.7 05:16:15 61° W 05:16:15 61° W 05:21:50 10° S
DELTA 2 R/B (1) 4.5 05:17:42 34° N 05:18:16 35° N 05:23:21 10° ENE
Cosmos 2016 Rocket 3.8 05:14:20 22° NNW 05:18:24 76° W 05:24:27 10° S
Cosmos 2242 Rocket 3.6 05:19:03 51° N 05:20:05 78° E 05:24:28 10° S
SL-16 R/B 2.5 05:23:39 44° NW 05:23:39 44° NW 05:28:09 10° N
Cosmos 1603 4.4 05:22:08 10° S 05:27:34 53° ESE 05:33:04 10° NNE
IRS-P2 Rocket 4.4 05:23:31 10° N 05:28:45 77° WNW 05:33:56 10° SSW
Meteor 2-12 Rocket 4.3 05:26:56 10° N 05:33:00 89° E 05:39:04 10° S
Cosmos 1862 Rocket 3.5 05:31:12 18° N 05:34:29 86° E 05:38:56 10° S
Meteor 1-26 Rocket 4.1 05:38:01 10° N 05:43:37 84° W 05:49:17 10° S
Cosmos 1864 Rocket 4.4 05:40:44 10° NNW 05:46:54 63° W 05:53:00 10° S
Cosmos 1992 Rocket 4.0 05:42:36 10° SSW 05:47:43 56° WNW 05:52:51 10° N
Delta 2 Rocket 3.8 05:46:47 38° NW 05:47:56 51° N 05:52:20 10° E
CZ-4B R/B 3.9 05:43:46 10° N 05:48:43 32° WNW 05:53:39 10° SW
Cosmos 2297 3.7 05:48:16 16° NNW 05:52:51 67° WSW 05:58:28 10° S
Cosmos 1408 2.6 05:51:26 10° S 05:55:10 81° E 05:58:55 10° N
Cosmos 2278 Rocket 3.5 06:00:21 20° WSW 06:00:21 20° WSW 06:04:03 10° SW
SKYMED 2 3.8 05:55:55 10° SSE 06:00:13 72° ENE 06:04:33 10° N
NOAA 6 3.9 05:56:37 10° N 06:01:42 66° WNW 06:06:44 10° SSW
Meteor 1-28 Rocket 3.6 06:02:06 10° S 06:05:39 39° W 06:08:04 18° NW
Cosmos 2233 Rocket 3.9 06:01:42 10° N 06:07:47 69° W 06:13:50 10° S
ISS -2.5 06:08:13 23° WSW 06:08:48 24° SW 06:11:30 10° S
EO 1 Del DPAF 3.1 06:06:23 10° S 06:10:12 79° WSW 06:14:03 10° NNW
Cosmos 1503 Rocket 4.1 06:06:26 10° NNW 06:11:28 54° WSW 06:16:28 10° S
Landsat 4 4.3 06:12:06 10° SSW 06:15:28 33° W 06:18:28 12° NW
Cosmos 2221 Rocket 4.4 06:12:48 10° N 06:17:11 55° E 06:21:35 10° SSE
Okean-O 3.0 06:13:31 10° N 06:17:40 40° WNW 06:21:49 10° SW
IDEFIX/ARIANE 42P 2.5 06:14:09 10° N 06:19:18 69° WNW 06:24:26 10° SSW
MSX 4.1 06:15:47 10° NNE 06:21:34 74° ESE 06:27:17 10° S
CZ-2C R/B 2.5 06:17:13 10° N 06:22:24 86° W 06:27:26 10° SSW
CZ-4 R/B 4.4 06:20:17 10° NE 06:23:14 20° E 06:26:14 10° SE
PAYLOAD A 4.2 06:18:54 10° N 06:24:03 57° WNW 06:29:19 10° SSW
Hubble Space Telescope 1.1 06:20:44 14° WSW 06:24:14 60° S 06:28:17 10° E
USA 229 DEB 3.9 06:20:29 10° NW 06:27:39 66° WSW 06:34:56 10° SSE
USA 229 3.9 06:20:35 10° NW 06:27:45 67° WSW 06:35:02 10° SSE
Cosmos 968 Rocket 3.7 06:22:42 10° NNW 06:27:59 79° ENE 06:33:13 10° SSE
Cosmos 1943 3.2 06:26:55 10° SSW 06:32:36 77° WNW 06:38:19 10° NNE
Cosmos 1869 Rocket 3.8 06:29:00 10° SSW 06:33:08 44° W 06:37:20 10° N
Cosmos 1703 Rocket 3.7 06:29:17 10° NNW 06:33:32 52° W 06:37:44 10° S
Cosmos 1943 Rocket 4.2 06:31:49 10° N 06:36:37 28° ENE 06:41:22 10° ESE
SJ-12 3.8 06:35:13 10° N 06:39:19 74° WNW 06:43:22 10° SSW
Cosmos 1825 3.2 06:37:14 10° SW 06:40:21 25° W 06:43:30 10° NNW
Lacrosse 5 rocket 3.5 06:39:24 10° WNW 06:41:19 12° NW 06:43:16 10° NNW
CSL-04 Rocket 4.3 06:38:20 10° NNE 06:43:48 66° ESE 06:49:18 10° S
Aureole 3 2.9 06:42:19 10° S 06:45:41 77° E 06:48:42 10° N
ATLAS 5 CENTAUR R/B 1.8 06:41:52 10° SW 06:46:13 51° WNW 06:50:55 10° NNE
Meteor 1-27 Rocket 4.1 06:41:31 10° N 06:47:21 74° E 06:53:02 10° SSE
COSMO-SKYMED 1 3.5 06:44:39 10° SSW 06:48:21 28° W 06:52:05 10° NW
Atlas Centaur 2 3.5 06:45:28 10° W 06:53:32 58° SSW 07:01:49 10° ESE
